Flag for Germany Weather past 2 weeks in Lüneburg, Lower Saxony, Germany

Now
48 °F

Passing clouds.


Feels Like: 48 °F
Forecast: 42 / 73 °F
Wind: 2 mph from East

Location: Fassberg

Current Time: Jul 31, 2015 at 11:30:53 PM

Latest Report: Jul 31, 2015 at 10:20 PM


Visibility: N/A

Pressure: 30.09 "Hg

Humidity: 94%

Dew point: 46 °F

Location of LüneburgLocation

Historic Weather in Lüneburg — Graph

°F

Lüneburg temperature yesterday

Maximum temperature yesterday: 63 °F (at 3:20 PM)
Minimum temperature yesterday: 54 °F (at 12:20 AM)
Average temperature yesterday: 57 °F

Past Weeks' High & Low Weather Summary

 TemperatureHumidityPressure
High90 °F (Jul 17, 4:20 PM)100% (Jul 18, 4:20 AM)30.09 "Hg (Jul 18, 4:20 AM)
Low45 °F (Jul 24, 5:20 AM)33% (Jul 17, 4:20 PM)29.45 "Hg (Jul 25, 2:20 PM)
Average62 °F76%29.83 "Hg
* Reported Jul 16 9:20 PM — Jul 31 9:20 PM, Lüneburg, Weather by CustomWeather, © 2015

Note: Actual official high and low records may vary slightly from our data, if they occured in-between our weather recording intervals... More about our weather records

Advertising

Lüneburg weather history for previous 24 hours

 ConditionsComfort  
Time TempWeatherWind HumidityBarometerVisibility
9:20 PM
Fri, Jul 31
54 °FPassing clouds.2 mph77%30.09 "HgN/A
8:20 PM59 °FPassing clouds.6 mph59%30.07 "HgN/A
7:20 PM63 °FScattered clouds.3 mph52%30.07 "HgN/A
6:20 PM63 °FScattered clouds.12 mph49%30.09 "HgN/A
5:20 PM64 °FScattered clouds.9 mph46%30.09 "HgN/A
4:20 PM61 °FScattered clouds.10 mph55%30.09 "HgN/A
3:20 PM61 °FBroken clouds.9 mph55%30.09 "HgN/A
2:20 PM61 °FBroken clouds.8 mph55%30.09 "HgN/A
1:20 PM61 °FBroken clouds.14 mph55%30.09 "HgN/A
12:20 PM59 °FBroken clouds.9 mph59%30.09 "HgN/A
12:00 PM57 °FBroken clouds.8 mph63%30.09 "HgN/A
11:20 AM59 °FBroken clouds.12 mph59%30.09 "HgN/A
10:20 AM57 °FBroken clouds.10 mph67%30.09 "HgN/A
9:20 AM57 °FPartly sunny.12 mph72%30.09 "HgN/A
8:20 AM55 °FScattered clouds.9 mph77%30.07 "HgN/A
7:20 AM54 °FPartly sunny.7 mph82%30.04 "HgN/A
6:20 AM50 °FPassing clouds.5 mph94%30.04 "HgN/A
5:20 AM50 °FPassing clouds.5 mph88%30.04 "HgN/A
4:20 AM50 °FPassing clouds.7 mph88%30.04 "HgN/A
3:20 AM52 °FPassing clouds.8 mph88%30.04 "HgN/A
2:20 AM52 °FPartly cloudy.8 mph88%30.01 "HgN/A
1:20 AM52 °FPassing clouds.8 mph88%30.01 "HgN/A
12:20 AM52 °FPassing clouds.9 mph88%30.01 "HgN/A
11:20 PM
Thu, Jul 30
54 °FPassing clouds.7 mph77%29.98 "HgN/A
Weather by CustomWeather, © 2015

See weather overviewHow to use our weather pages